Austin, MN

11:21 PM CST on November 18, 2017 (GMT -0600)
Austin Municipal

Weather History for KAUM - February, 2013

Change the Weather History Date:

Sunday, February 10, 2013

  Actual Average Record
Temperature  
Mean Temperature 34 °F -  
Max Temperature 37 °F 26 °F 48 °F (2009)
Min Temperature 30 °F 12 °F -16 °F (2011)
Degree Days  
Heating Degree Days 32    
Moisture  
Dew Point 31 °F    
Average Humidity 89    
Maximum Humidity 100    
Minimum Humidity 4    
Precipitation  
Precipitation 0.25 in - - ()
Sea Level Pressure  
Sea Level Pressure 29.46 in    
Wind  
Wind Speed 13 mph (SSE)    
Max Wind Speed 25 mph    
Max Gust Speed 31 mph    
Visibility 4 miles    
Events Fog , Rain , Snow    
Averages and records for this station are not official NWS values.
T = Trace of Precipitation, MM = Missing Value Source: NWS Daily Summary

Daily Weather History Graph

Daily Weather History Graph

Search for Another Location

Airport or City:

Trip Planner

Search our weather history database for the weather conditions in past years. The results will help you decide how hot, cold, wet, or windy it might be!

Date:

Astronomy

Feb. 10, 2013 Rise Set
Actual Time 7:16 AM CST 5:35 PM CST
Civil Twilight 6:47 AM CST 6:05 PM CST
Nautical Twilight 6:13 AM CST 6:39 PM CST
Astronomical Twilight 5:40 AM CST 7:12 PM CST
Moon 7:04 AM CST (2/10) 6:30 PM CST (2/10)
Length of Visible Light 11h 18m
Length of Day
10h 18m
New Moon, 0% of the Moon is Illuminated
Feb 10
New Moon
Feb 17
First Quarter
Feb 25
Full
Mar 4
Last Quarter
Mar 11
New

Hourly Weather History & Observations

Time (CST) Temp. Windchill Dew Point Humidity Pressure Visibility Wind Dir Wind Speed Gust Speed Precip Events Conditions
12:15 AM 30.2 °F 21.3 °F 26.6 °F 86% 29.89 in 7.0 mi SE 10.4 mph 18.4 mph N/A   Overcast
12:35 AM 30.2 °F 19.8 °F 26.6 °F 86% 29.88 in 5.0 mi SE 13.8 mph 19.6 mph N/A   Overcast
12:56 AM 30.2 °F 19.8 °F 26.6 °F 86% 29.87 in 5.0 mi SE 13.8 mph 18.4 mph N/A   Overcast
1:15 AM 30.2 °F 20.2 °F 26.6 °F 86% 29.86 in 5.0 mi SE 12.7 mph 17.3 mph N/A   Overcast
1:35 AM 30.2 °F 21.3 °F 26.6 °F 86% 29.86 in 5.0 mi SE 10.4 mph - N/A   Overcast
1:55 AM 30.2 °F 20.8 °F 26.6 °F 86% 29.84 in 5.0 mi SE 11.5 mph - N/A   Overcast
2:15 AM 30.2 °F 20.2 °F 26.6 °F 86% 29.83 in 4.0 mi SE 12.7 mph 16.1 mph N/A   Overcast
2:35 AM 30.2 °F 20.2 °F 26.6 °F 86% 29.82 in 5.0 mi SE 12.7 mph - N/A   Overcast
2:56 AM 30.2 °F 19.3 °F 26.6 °F 86% 29.81 in 2.0 mi SE 15.0 mph - N/A Snow Light Snow
3:15 AM 30.2 °F 18.9 °F 28.4 °F 93% 29.80 in 4.0 mi SE 16.1 mph - N/A   Overcast
3:35 AM 30.2 °F 19.8 °F 28.4 °F 93% 29.79 in 4.0 mi SE 13.8 mph - N/A   Overcast
3:56 AM 30.2 °F 20.2 °F 28.4 °F 93% 29.77 in 4.0 mi SE 12.7 mph - N/A   Overcast
4:15 AM 30.2 °F 18.5 °F 28.4 °F 93% 29.74 in 4.0 mi ESE 17.3 mph - N/A   Overcast
4:35 AM 30.2 °F 19.8 °F 28.4 °F 93% 29.73 in 4.0 mi SE 13.8 mph - N/A   Overcast
4:56 AM 30.2 °F 19.3 °F 28.4 °F 93% 29.68 in 4.0 mi ESE 15.0 mph - N/A   Overcast
5:15 AM 30.2 °F 17.8 °F 28.4 °F 93% 29.70 in 4.0 mi ESE 19.6 mph - N/A   Overcast
5:35 AM 30.2 °F 18.1 °F 28.4 °F 93% 29.68 in 4.0 mi ESE 18.4 mph - N/A   Overcast
5:56 AM 30.2 °F 17.4 °F 28.4 °F 93% 29.64 in 4.0 mi ESE 20.7 mph 25.3 mph N/A   Overcast
6:15 AM 30.2 °F 17.8 °F 28.4 °F 93% 29.65 in 3.0 mi ESE 19.6 mph - N/A   Overcast
6:35 AM 30.2 °F 18.1 °F 28.4 °F 93% 29.62 in 1.8 mi ESE 18.4 mph - N/A   Overcast
6:56 AM 30.2 °F 18.5 °F 28.4 °F 93% 29.59 in 1.0 mi ESE 17.3 mph - N/A   Overcast
7:15 AM 30.2 °F 17.8 °F 28.4 °F 93% 29.60 in 1.2 mi ESE 19.6 mph 24.2 mph N/A   Overcast
7:35 AM 30.2 °F 18.9 °F 28.4 °F 93% 29.58 in 1.5 mi ESE 16.1 mph - N/A   Overcast
7:56 AM 30.2 °F 17.4 °F 28.4 °F 93% 29.58 in 1.2 mi ESE 20.7 mph - N/A   Overcast
8:15 AM 30.2 °F 17.1 °F 28.4 °F 93% 29.58 in 1.0 mi ESE 21.9 mph 26.5 mph N/A   Overcast
8:35 AM 32.0 °F 19.2 °F 30.2 °F 93% 29.56 in 0.5 mi ESE 23.0 mph 31.1 mph 0.01 in   Overcast
8:56 AM 32.0 °F 18.6 °F 30.2 °F 93% 29.53 in 0.8 mi ESE 25.3 mph 29.9 mph N/A   Overcast
9:16 AM 33.8 °F - 30.2 °F 87% 29.47 in 1.8 mi North - - N/A Snow Light Snow
9:35 AM 32.0 °F 20.1 °F - 4% 29.50 in 3.0 mi ESE 19.6 mph - N/A Snow Light Snow
9:55 AM 32.0 °F 20.1 °F - 4% 29.44 in 2.5 mi ESE 19.6 mph - 0.02 in Snow Light Snow
10:15 AM 33.8 °F 22.8 °F 32.0 °F 93% 29.45 in 1.5 mi SE 18.4 mph 26.5 mph 0.03 in Snow Light Snow
10:35 AM 32.0 °F 19.5 °F 32.0 °F 100% 29.44 in 1.2 mi SE 21.9 mph 27.6 mph 0.07 in   Overcast
10:55 AM 33.8 °F 23.5 °F 32.0 °F 93% 29.43 in 2.0 mi SE 16.1 mph 23.0 mph 0.11 in Snow Snow
11:16 AM 33.8 °F 24.8 °F 32.0 °F 93% 29.42 in 1.8 mi SE 12.7 mph 20.7 mph 0.02 in Snow Light Snow
11:35 AM 33.8 °F 24.3 °F 32.0 °F 93% 29.41 in 5.0 mi SE 13.8 mph 20.7 mph 0.02 in Rain Light Rain
11:55 AM 33.8 °F 24.8 °F 32.0 °F 93% 29.40 in 2.5 mi SE 12.7 mph 17.3 mph 0.03 in Rain Light Rain
12:16 PM 35.6 °F 27.1 °F 32.0 °F 87% 29.37 in 2.5 mi SE 12.7 mph 17.3 mph 0.02 in Rain Light Rain
12:35 PM 35.6 °F 26.2 °F 33.8 °F 93% 29.36 in 1.8 mi SE 15.0 mph 19.6 mph 0.02 in Rain Light Rain
12:55 PM 35.6 °F 27.1 °F 33.8 °F 93% 29.34 in 2.5 mi SE 12.7 mph 18.4 mph 0.02 in Snow Light Snow
1:15 PM 35.6 °F 28.0 °F 33.8 °F 93% 29.34 in 2.0 mi SE 10.4 mph 16.1 mph N/A   Overcast
1:35 PM 35.6 °F 29.2 °F 33.8 °F 93% 29.33 in 2.0 mi SSE 8.1 mph - N/A   Light Drizzle
1:55 PM 35.6 °F 28.6 °F 33.8 °F 93% 29.32 in 1.5 mi SE 9.2 mph - N/A   Light Drizzle
2:15 PM 35.6 °F 29.9 °F 33.8 °F 93% 29.30 in 2.5 mi SSE 6.9 mph 17.3 mph N/A   Overcast
2:35 PM 35.6 °F 28.6 °F 33.8 °F 93% 29.28 in 1.8 mi SE 9.2 mph - N/A   Overcast
2:55 PM 35.6 °F 29.2 °F 33.8 °F 93% 29.28 in 0.5 mi SSE 8.1 mph - N/A Fog Fog
3:15 PM 35.6 °F 29.9 °F 33.8 °F 93% 29.27 in 0.2 mi SSE 6.9 mph - N/A Fog Fog
3:36 PM 35.6 °F 29.9 °F 33.8 °F 93% 29.26 in 0.2 mi SE 6.9 mph - N/A   Drizzle
3:55 PM 35.6 °F 29.9 °F 33.8 °F 93% 29.26 in 0.2 mi SE 6.9 mph - N/A Fog Fog
4:15 PM 35.6 °F 29.2 °F 35.6 °F 100% 29.25 in 0.2 mi SE 8.1 mph - N/A Rain Light Rain
4:36 PM 37.4 °F 30.3 °F 35.6 °F 93% 29.24 in 0.8 mi SE 10.4 mph - 0.03 in Rain Rain
4:55 PM 35.6 °F 29.2 °F 35.6 °F 100% 29.25 in 1.0 mi SE 8.1 mph - 0.05 in Rain Light Rain
5:15 PM 37.4 °F 32.1 °F 35.6 °F 93% 29.25 in 5.0 mi South 6.9 mph - N/A Rain Rain
5:35 PM 37.4 °F 30.8 °F 35.6 °F 93% 29.25 in 10.0 mi South 9.2 mph - N/A   Light Drizzle
5:55 PM 37.4 °F 30.8 °F 35.6 °F 93% 29.25 in 7.0 mi South 9.2 mph - N/A   Overcast
6:15 PM 37.4 °F 29.8 °F 35.6 °F 93% 29.25 in 10.0 mi SSW 11.5 mph 16.1 mph N/A   Light Drizzle
6:35 PM 35.6 °F 25.5 °F 33.8 °F 93% 29.26 in 7.0 mi SW 17.3 mph 24.2 mph N/A   Drizzle
6:55 PM 35.6 °F 25.9 °F 33.8 °F 93% 29.26 in 7.0 mi SSW 16.1 mph 21.9 mph N/A Rain Light Rain
7:15 PM 35.6 °F 27.1 °F 30.2 °F 81% 29.26 in 4.0 mi SSW 12.7 mph - 0.01 in Rain Rain
7:35 PM 35.6 °F 28.6 °F 32.0 °F 87% 29.25 in 10.0 mi SSW 9.2 mph 17.3 mph 0.01 in   Overcast
7:55 PM 33.8 °F 27.0 °F 32.0 °F 93% 29.25 in 10.0 mi SSW 8.1 mph - 0.01 in   Light Drizzle
8:16 PM 33.8 °F 26.4 °F 32.0 °F 93% 29.25 in 10.0 mi SSW 9.2 mph - N/A   Overcast
8:35 PM 33.8 °F 26.4 °F 32.0 °F 93% 29.25 in 10.0 mi SSW 9.2 mph - N/A   Overcast
8:55 PM 33.8 °F 25.8 °F 32.0 °F 93% 29.24 in 10.0 mi SSW 10.4 mph - N/A   Light Drizzle
9:16 PM 33.8 °F 27.0 °F 32.0 °F 93% 29.24 in 7.0 mi SSW 8.1 mph - N/A   Overcast
9:35 PM 33.8 °F 28.6 °F 32.0 °F 93% 29.25 in 7.0 mi SSW 5.8 mph - N/A   Drizzle
9:55 PM 33.8 °F 26.4 °F 30.2 °F 87% 29.25 in 4.0 mi SW 9.2 mph - N/A   Light Drizzle
10:16 PM 33.8 °F 25.8 °F 30.2 °F 87% 29.25 in 5.0 mi SW 10.4 mph - N/A   Overcast
10:35 PM 33.8 °F 26.4 °F 32.0 °F 93% 29.26 in 3.0 mi WSW 9.2 mph - N/A Snow Light Snow
10:56 PM 33.8 °F 25.3 °F 30.2 °F 87% 29.27 in 2.5 mi West 11.5 mph - N/A Snow Light Snow
11:15 PM 33.8 °F 24.8 °F 32.0 °F 93% 29.27 in 5.0 mi West 12.7 mph 17.3 mph N/A Snow Light Snow
11:35 PM 33.8 °F 23.5 °F 30.2 °F 87% 29.29 in 4.0 mi West 16.1 mph 26.5 mph N/A Snow Light Snow
11:55 PM 33.8 °F 23.5 °F 30.2 °F 87% 29.30 in 5.0 mi WNW 16.1 mph 26.5 mph N/A   Overcast